contact:dominique.lefevre@mio.osupytheas.fr, maurice.libes@osupytheas.fr, didier.mallarino@osupytheas.fr
Project:EMSO http://www.emso-fr.org/EMSO-France
Depth: 2436.0 m
Title:EMSO Ligure Ouest : Data MII capteur CSTAR
DateTime,Latitude,Longitude,Instrument_Serial,Reference_Counts,Signal_Counts,Corrected_Signal_raw_counts,Calculated_Beam_c_inverse_meters,Internal_thermistor_counts
DateTime,Latitude,Longitude,Instrument_Serial,Reference_Counts,Signal_Counts,Corrected_Signal_raw_counts,Calculated_Beam_c_inverse_meters,Internal_thermistor_counts
2022-06-28T00:02:22,42.805,6.029,CST-1368DR,4682,4991,11359,01.273,551
2022-06-28T00:05:23,42.805,6.029,CST-1368DR,4682,4998,11375,01.268,551
2022-06-28T00:08:25,42.805,6.029,CST-1368DR,4682,4998,11375,01.268,551
2022-06-28T00:11:26,42.805,6.029,CST-1368DR,4682,4991,11359,01.273,551
2022-06-28T00:14:28,42.805,6.029,CST-1368DR,4682,4996,11370,01.269,551
2022-06-28T00:17:30,42.805,6.029,CST-1368DR,4682,4993,11363,01.272,551
2022-06-28T00:20:31,42.805,6.029,CST-1368DR,4682,4996,11369,01.270,551
2022-06-28T00:23:33,42.805,6.029,CST-1368DR,4682,4990,11357,01.274,550
2022-06-28T00:26:34,42.805,6.029,CST-1368DR,4682,4989,11353,01.275,551
2022-06-28T00:29:36,42.805,6.029,CST-1368DR,4682,4993,11363,01.272,551
2022-06-28T00:32:37,42.805,6.029,CST-1368DR,4682,4992,11362,01.272,551
2022-06-28T00:35:39,42.805,6.029,CST-1368DR,4682,4988,11351,01.276,551
2022-06-28T00:38:41,42.805,6.029,CST-1368DR,4682,4989,11355,01.275,551
2022-06-28T00:41:42,42.805,6.029,CST-1368DR,4682,4979,11331,01.283,551
2022-06-28T00:44:44,42.805,6.029,CST-1368DR,4682,4985,11346,01.278,551
2022-06-28T00:47:45,42.805,6.029,CST-1368DR,4682,4978,11329,01.284,551
2022-06-28T00:50:47,42.805,6.029,CST-1368DR,4682,4982,11337,01.281,550
2022-06-28T00:53:49,42.805,6.029,CST-1368DR,4682,4983,11340,01.280,551
2022-06-28T00:56:50,42.805,6.029,CST-1368DR,4682,4984,11342,01.279,551
2022-06-28T00:59:52,42.805,6.029,CST-1368DR,4682,4982,11338,01.281,551
2022-06-28T01:02:53,42.805,6.029,CST-1368DR,4682,4988,11353,01.275,551
2022-06-28T01:05:55,42.805,6.029,CST-1368DR,4682,4985,11346,01.278,551
2022-06-28T01:08:56,42.805,6.029,CST-1368DR,4682,4980,11334,01.282,551
2022-06-28T01:11:58,42.805,6.029,CST-1368DR,4682,4986,11346,01.278,551
2022-06-28T01:15:00,42.805,6.029,CST-1368DR,4682,4987,11350,01.276,551
2022-06-28T01:18:01,42.805,6.029,CST-1368DR,4682,4990,11356,01.274,551
2022-06-28T01:21:03,42.805,6.029,CST-1368DR,4682,4993,11362,01.272,551
2022-06-28T01:24:04,42.805,6.029,CST-1368DR,4682,4991,11358,01.273,551
2022-06-28T01:27:06,42.805,6.029,CST-1368DR,4682,4993,11364,01.271,551
2022-06-28T01:30:07,42.805,6.029,CST-1368DR,4682,4990,11357,01.274,551
2022-06-28T01:33:09,42.805,6.029,CST-1368DR,4682,4990,11356,01.274,551
2022-06-28T01:36:11,42.805,6.029,CST-1368DR,4682,4997,11373,01.268,551
2022-06-28T01:39:12,42.805,6.029,CST-1368DR,4682,4991,11359,01.273,551
2022-06-28T01:42:14,42.805,6.029,CST-1368DR,4682,4989,11354,01.275,551
2022-06-28T01:45:15,42.805,6.029,CST-1368DR,4682,4987,11349,01.277,551
2022-06-28T01:48:17,42.805,6.029,CST-1368DR,4682,4995,11367,01.270,551
2022-06-28T01:51:19,42.805,6.029,CST-1368DR,4682,4996,11370,01.269,551
2022-06-28T01:54:20,42.805,6.029,CST-1368DR,4682,4994,11365,01.271,551
2022-06-28T01:57:22,42.805,6.029,CST-1368DR,4682,4993,11363,01.272,551
2022-06-28T02:00:23,42.805,6.029,CST-1368DR,4682,4993,11362,01.272,551
2022-06-28T02:03:25,42.805,6.029,CST-1368DR,4682,4997,11373,01.268,551
2022-06-28T02:06:26,42.805,6.029,CST-1368DR,4682,4993,11362,01.272,551
2022-06-28T02:09:28,42.805,6.029,CST-1368DR,4682,4989,11354,01.275,551
2022-06-28T02:12:30,42.805,6.029,CST-1368DR,4682,4986,11347,01.277,551
2022-06-28T02:15:31,42.805,6.029,CST-1368DR,4682,4997,11372,01.269,551
2022-06-28T02:18:33,42.805,6.029,CST-1368DR,4682,4995,11368,01.270,551
2022-06-28T02:21:34,42.805,6.029,CST-1368DR,4682,4975,11322,01.286,551
2022-06-28T02:24:36,42.805,6.029,CST-1368DR,4682,4971,11313,01.289,551
2022-06-28T02:27:37,42.805,6.029,CST-1368DR,4682,4990,11357,01.274,551
2022-06-28T02:30:39,42.805,6.029,CST-1368DR,4682,4980,11333,01.282,551
2022-06-28T02:33:41,42.805,6.029,CST-1368DR,4682,4976,11325,01.285,551
2022-06-28T02:36:42,42.805,6.029,CST-1368DR,4682,4988,11351,01.276,551
2022-06-28T02:39:44,42.805,6.029,CST-1368DR,4682,4989,11355,01.275,551
2022-06-28T02:42:45,42.805,6.029,CST-1368DR,4682,4988,11353,01.275,551
2022-06-28T02:45:47,42.805,6.029,CST-1368DR,4682,4984,11342,01.279,551
2022-06-28T02:48:49,42.805,6.029,CST-1368DR,4682,4986,11347,01.277,551
2022-06-28T02:51:50,42.805,6.029,CST-1368DR,4682,4979,11331,01.283,551
2022-06-28T02:54:52,42.805,6.029,CST-1368DR,4682,4978,11329,01.284,551
2022-06-28T02:57:53,42.805,6.029,CST-1368DR,4682,4974,11320,01.287,551
2022-06-28T03:00:55,42.805,6.029,CST-1368DR,4682,4980,11334,01.282,551
2022-06-28T03:03:56,42.805,6.029,CST-1368DR,4682,4974,11321,01.287,551
2022-06-28T03:06:58,42.805,6.029,CST-1368DR,4682,4980,11333,01.282,551
2022-06-28T03:10:00,42.805,6.029,CST-1368DR,4682,4980,11333,01.282,551
2022-06-28T03:13:01,42.805,6.029,CST-1368DR,4682,4977,11326,01.285,551
2022-06-28T03:16:03,42.805,6.029,CST-1368DR,4682,4976,11324,01.285,551
2022-06-28T03:19:04,42.805,6.029,CST-1368DR,4682,4977,11326,01.285,551
2022-06-28T03:22:06,42.805,6.029,CST-1368DR,4682,4976,11325,01.285,551
2022-06-28T03:25:08,42.805,6.029,CST-1368DR,4682,4976,11325,01.285,551
2022-06-28T03:28:09,42.805,6.029,CST-1368DR,4682,4973,11317,01.288,551
2022-06-28T03:31:11,42.805,6.029,CST-1368DR,4682,4974,11320,01.287,551
2022-06-28T03:34:12,42.805,6.029,CST-1368DR,4682,4976,11324,01.285,551
2022-06-28T03:37:14,42.805,6.029,CST-1368DR,4682,4980,11333,01.282,551
2022-06-28T03:40:15,42.805,6.029,CST-1368DR,4682,4980,11334,01.282,551
2022-06-28T03:43:17,42.805,6.029,CST-1368DR,4682,4982,11339,01.280,551
2022-06-28T03:46:19,42.805,6.029,CST-1368DR,4682,4982,11338,01.281,551
2022-06-28T03:49:20,42.805,6.029,CST-1368DR,4682,4980,11334,01.282,551
2022-06-28T03:52:22,42.805,6.029,CST-1368DR,4682,4978,11329,01.284,551
2022-06-28T03:55:23,42.805,6.029,CST-1368DR,4682,4982,11337,01.281,551
2022-06-28T03:58:25,42.805,6.029,CST-1368DR,4682,4985,11345,01.278,551
2022-06-28T04:01:26,42.805,6.029,CST-1368DR,4682,4984,11342,01.279,551
2022-06-28T04:04:28,42.805,6.029,CST-1368DR,4682,4988,11351,01.276,551
2022-06-28T04:07:30,42.805,6.029,CST-1368DR,4682,4990,11357,01.274,551
2022-06-28T04:10:31,42.805,6.029,CST-1368DR,4682,4985,11344,01.278,551
2022-06-28T04:13:33,42.805,6.029,CST-1368DR,4682,4979,11330,01.283,551
2022-06-28T04:16:34,42.805,6.029,CST-1368DR,4682,4981,11337,01.281,551
2022-06-28T04:19:36,42.805,6.029,CST-1368DR,4682,4984,11343,01.279,551
2022-06-28T04:22:38,42.805,6.029,CST-1368DR,4682,4986,11347,01.277,551
2022-06-28T04:25:39,42.805,6.029,CST-1368DR,4682,4986,11347,01.277,551
2022-06-28T04:28:41,42.805,6.029,CST-1368DR,4682,4983,11340,01.280,551
2022-06-28T04:31:42,42.805,6.029,CST-1368DR,4682,4990,11357,01.274,551
2022-06-28T04:34:44,42.805,6.029,CST-1368DR,4682,4982,11338,01.281,551
2022-06-28T04:37:45,42.805,6.029,CST-1368DR,4682,4983,11340,01.280,551
2022-06-28T04:40:47,42.805,6.029,CST-1368DR,4682,4987,11350,01.276,551
2022-06-28T04:43:49,42.805,6.029,CST-1368DR,4682,4987,11349,01.277,551
2022-06-28T04:46:50,42.805,6.029,CST-1368DR,4682,4978,11330,01.283,551
2022-06-28T04:49:52,42.805,6.029,CST-1368DR,4682,4985,11345,01.278,551
2022-06-28T04:52:53,42.805,6.029,CST-1368DR,4682,4985,11344,01.278,551
2022-06-28T04:55:55,42.805,6.029,CST-1368DR,4682,4977,11326,01.285,551
2022-06-28T04:58:56,42.805,6.029,CST-1368DR,4682,4986,11347,01.277,551
2022-06-28T05:01:58,42.805,6.029,CST-1368DR,4682,4989,11355,01.275,551
2022-06-28T05:05:00,42.805,6.029,CST-1368DR,4682,4984,11342,01.279,551
2022-06-28T05:08:01,42.805,6.029,CST-1368DR,4682,4972,11314,01.289,551
2022-06-28T05:11:03,42.805,6.029,CST-1368DR,4682,4976,11325,01.285,551
2022-06-28T05:14:04,42.805,6.029,CST-1368DR,4682,4985,11345,01.278,551
2022-06-28T05:17:06,42.805,6.029,CST-1368DR,4682,4983,11341,01.279,551
2022-06-28T05:20:08,42.805,6.029,CST-1368DR,4682,4987,11350,01.276,551
2022-06-28T05:23:09,42.805,6.029,CST-1368DR,4682,4992,11360,01.273,551
2022-06-28T05:26:11,42.805,6.029,CST-1368DR,4682,4990,11356,01.274,551
2022-06-28T05:29:12,42.805,6.029,CST-1368DR,4682,4986,11346,01.278,551
2022-06-28T05:32:14,42.805,6.029,CST-1368DR,4682,4988,11352,01.276,551
2022-06-28T05:35:15,42.805,6.029,CST-1368DR,4682,4982,11338,01.281,551
2022-06-28T05:38:17,42.805,6.029,CST-1368DR,4682,4987,11350,01.276,551
2022-06-28T05:41:19,42.805,6.029,CST-1368DR,4682,4986,11348,01.277,551
2022-06-28T05:44:20,42.805,6.029,CST-1368DR,4682,4983,11341,01.279,551
2022-06-28T05:47:22,42.805,6.029,CST-1368DR,4682,4968,11305,01.292,551
2022-06-28T05:50:23,42.805,6.029,CST-1368DR,4682,4972,11315,01.289,551
2022-06-28T05:53:25,42.805,6.029,CST-1368DR,4682,4982,11338,01.281,551
2022-06-28T05:56:27,42.805,6.029,CST-1368DR,4682,4998,11375,01.268,551
2022-06-28T05:59:28,42.805,6.029,CST-1368DR,4682,4997,11372,01.269,551
2022-06-28T06:02:30,42.805,6.029,CST-1368DR,4682,5007,11394,01.261,551
2022-06-28T06:05:31,42.805,6.029,CST-1368DR,4682,4995,11368,01.270,551
2022-06-28T06:08:33,42.805,6.029,CST-1368DR,4682,4983,11341,01.279,551
2022-06-28T06:11:34,42.805,6.029,CST-1368DR,4682,4985,11344,01.278,551
2022-06-28T06:14:36,42.805,6.029,CST-1368DR,4682,4995,11368,01.270,551
2022-06-28T06:17:38,42.805,6.029,CST-1368DR,4682,4987,11349,01.277,551
2022-06-28T06:20:39,42.805,6.029,CST-1368DR,4682,4999,11376,01.267,551
2022-06-28T06:23:41,42.805,6.029,CST-1368DR,4682,4992,11360,01.273,551
2022-06-28T06:26:42,42.805,6.029,CST-1368DR,4682,4984,11342,01.279,551
2022-06-28T06:29:44,42.805,6.029,CST-1368DR,4682,4970,11312,01.290,551
2022-06-28T06:32:46,42.805,6.029,CST-1368DR,4682,4989,11353,01.275,551
2022-06-28T06:35:47,42.805,6.029,CST-1368DR,4682,4983,11341,01.279,551
2022-06-28T06:38:49,42.805,6.029,CST-1368DR,4682,4970,11310,01.290,551
2022-06-28T06:41:50,42.805,6.029,CST-1368DR,4682,4976,11325,01.285,551
2022-06-28T06:44:52,42.805,6.029,CST-1368DR,4682,4986,11347,01.277,551
2022-06-28T06:47:53,42.805,6.029,CST-1368DR,4681,4965,11301,01.294,551
2022-06-28T06:50:55,42.805,6.029,CST-1368DR,4682,4969,11308,01.291,551
2022-06-28T06:53:57,42.805,6.029,CST-1368DR,4681,4970,11312,01.290,551
2022-06-28T06:56:58,42.805,6.029,CST-1368DR,4681,4966,11304,01.293,551
2022-06-28T07:00:00,42.805,6.029,CST-1368DR,4681,4970,11313,01.289,551
2022-06-28T07:03:01,42.805,6.029,CST-1368DR,4682,4983,11341,01.279,551
2022-06-28T07:06:03,42.805,6.029,CST-1368DR,4681,4964,11299,01.294,551
2022-06-28T07:09:04,42.805,6.029,CST-1368DR,4682,4984,11342,01.279,551
2022-06-28T07:12:06,42.805,6.029,CST-1368DR,4682,5016,11416,01.253,551
2022-06-28T07:15:08,42.805,6.029,CST-1368DR,4682,4974,11320,01.287,551
2022-06-28T07:18:09,42.805,6.029,CST-1368DR,4682,4985,11345,01.278,551
2022-06-28T07:21:11,42.805,6.029,CST-1368DR,4682,4982,11338,01.281,551
2022-06-28T07:24:12,42.805,6.029,CST-1368DR,4682,4963,11295,01.296,551
2022-06-28T07:27:14,42.805,6.029,CST-1368DR,4682,4982,11338,01.281,551
2022-06-28T07:30:16,42.805,6.029,CST-1368DR,4682,4984,11342,01.279,551
2022-06-28T07:33:17,42.805,6.029,CST-1368DR,4681,4973,11320,01.287,551
2022-06-28T07:36:19,42.805,6.029,CST-1368DR,4682,4985,11345,01.278,551
2022-06-28T07:39:20,42.805,6.029,CST-1368DR,4682,4993,11362,01.272,551
2022-06-28T07:42:22,42.805,6.029,CST-1368DR,4682,4988,11351,01.276,551
2022-06-28T07:45:23,42.805,6.029,CST-1368DR,4682,4995,11368,01.270,551
2022-06-28T07:48:25,42.805,6.029,CST-1368DR,4682,4973,11318,01.288,551
2022-06-28T07:51:27,42.805,6.029,CST-1368DR,4681,4968,11309,01.291,551
2022-06-28T07:54:28,42.805,6.029,CST-1368DR,4682,4992,11360,01.273,551
2022-06-28T07:57:30,42.805,6.029,CST-1368DR,4681,4987,11353,01.275,551
2022-06-28T08:00:31,42.805,6.029,CST-1368DR,4682,4989,11353,01.275,551
2022-06-28T08:03:33,42.805,6.029,CST-1368DR,4682,4985,11344,01.278,551
2022-06-28T08:06:34,42.805,6.029,CST-1368DR,4682,4995,11367,01.270,551
2022-06-28T08:09:36,42.805,6.029,CST-1368DR,4682,4994,11365,01.271,551
2022-06-28T08:12:38,42.805,6.029,CST-1368DR,4682,4981,11337,01.281,551
2022-06-28T08:15:39,42.805,6.029,CST-1368DR,4682,4994,11366,01.271,551
2022-06-28T08:18:41,42.805,6.029,CST-1368DR,4682,5003,11385,01.264,551
2022-06-28T08:21:42,42.805,6.029,CST-1368DR,4682,5000,11379,01.266,551
2022-06-28T08:24:44,42.805,6.029,CST-1368DR,4682,4990,11355,01.275,551
2022-06-28T08:27:46,42.805,6.029,CST-1368DR,4682,4996,11371,01.269,551
2022-06-28T08:30:47,42.805,6.029,CST-1368DR,4682,4979,11332,01.283,551
2022-06-28T08:33:49,42.805,6.029,CST-1368DR,4682,5000,11380,01.266,551
2022-06-28T08:36:50,42.805,6.029,CST-1368DR,4682,5001,11380,01.266,551
2022-06-28T08:39:52,42.805,6.029,CST-1368DR,4682,4996,11370,01.269,551
2022-06-28T08:42:53,42.805,6.029,CST-1368DR,4682,4986,11346,01.278,551
2022-06-28T08:45:55,42.805,6.029,CST-1368DR,4682,4998,11374,01.268,551
2022-06-28T08:48:57,42.805,6.029,CST-1368DR,4682,4997,11373,01.268,551
2022-06-28T08:51:58,42.805,6.029,CST-1368DR,4682,4997,11372,01.269,551
2022-06-28T08:55:00,42.805,6.029,CST-1368DR,4682,4999,11378,01.266,551
2022-06-28T08:58:01,42.805,6.029,CST-1368DR,4682,5000,11378,01.266,551
2022-06-28T09:01:03,42.805,6.029,CST-1368DR,4682,4993,11364,01.271,551
2022-06-28T09:04:05,42.805,6.029,CST-1368DR,4682,4996,11369,01.270,551
2022-06-28T09:07:06,42.805,6.029,CST-1368DR,4682,4997,11373,01.268,551
2022-06-28T09:10:08,42.805,6.029,CST-1368DR,4682,5003,11387,01.263,551
2022-06-28T09:13:09,42.805,6.029,CST-1368DR,4682,4990,11355,01.275,551
2022-06-28T09:16:11,42.805,6.029,CST-1368DR,4682,4999,11376,01.267,551
2022-06-28T09:19:12,42.805,6.029,CST-1368DR,4682,4994,11365,01.271,551
2022-06-28T09:22:14,42.805,6.029,CST-1368DR,4681,4996,11371,01.269,551
2022-06-28T09:25:16,42.805,6.029,CST-1368DR,4681,4984,11344,01.278,551
2022-06-28T09:28:17,42.805,6.029,CST-1368DR,4682,4994,11365,01.271,551
2022-06-28T09:31:19,42.805,6.029,CST-1368DR,4681,4995,11370,01.269,551
2022-06-28T09:34:20,42.805,6.029,CST-1368DR,4682,4996,11369,01.270,551
2022-06-28T09:37:22,42.805,6.029,CST-1368DR,4682,4998,11374,01.268,551
2022-06-28T09:40:23,42.805,6.029,CST-1368DR,4682,4998,11374,01.268,551
2022-06-28T09:43:25,42.805,6.029,CST-1368DR,4682,5003,11386,01.264,551
2022-06-28T09:46:27,42.805,6.029,CST-1368DR,4682,5002,11384,01.264,551
2022-06-28T09:49:28,42.805,6.029,CST-1368DR,4682,5000,11380,01.266,551
2022-06-28T09:52:30,42.805,6.029,CST-1368DR,4682,5003,11386,01.264,551
2022-06-28T09:55:31,42.805,6.029,CST-1368DR,4682,5003,11387,01.263,551
2022-06-28T09:58:33,42.805,6.029,CST-1368DR,4682,5006,11393,01.261,551
2022-06-28T10:01:35,42.805,6.029,CST-1368DR,4682,5000,11379,01.266,550
2022-06-28T10:04:36,42.805,6.029,CST-1368DR,4682,5007,11395,01.260,551
2022-06-28T10:07:38,42.805,6.029,CST-1368DR,4682,4999,11376,01.267,551
2022-06-28T10:10:39,42.805,6.029,CST-1368DR,4682,5000,11379,01.266,551
2022-06-28T10:13:41,42.805,6.029,CST-1368DR,4681,5004,11391,01.262,551
2022-06-28T10:16:42,42.805,6.029,CST-1368DR,4682,5000,11379,01.266,551
2022-06-28T10:19:44,42.805,6.029,CST-1368DR,4682,5000,11380,01.266,551
2022-06-28T10:22:46,42.805,6.029,CST-1368DR,4682,5006,11392,01.262,551
2022-06-28T10:25:47,42.805,6.029,CST-1368DR,4682,5006,11393,01.261,551
2022-06-28T10:28:49,42.805,6.029,CST-1368DR,4681,4995,11370,01.269,551
2022-06-28T10:31:50,42.805,6.029,CST-1368DR,4682,5006,11393,01.261,551
2022-06-28T10:34:52,42.805,6.029,CST-1368DR,4681,4999,11379,01.266,551
2022-06-28T10:37:54,42.805,6.029,CST-1368DR,4682,5003,11387,01.263,551
2022-06-28T10:40:55,42.805,6.029,CST-1368DR,4682,5006,11393,01.261,551
2022-06-28T10:43:57,42.805,6.029,CST-1368DR,4681,5002,11387,01.263,551
2022-06-28T10:46:58,42.805,6.029,CST-1368DR,4681,4982,11341,01.279,551
2022-06-28T10:50:00,42.805,6.029,CST-1368DR,4682,4995,11368,01.270,551
2022-06-28T10:53:01,42.805,6.029,CST-1368DR,4681,4992,11363,01.272,551
2022-06-28T10:56:03,42.805,6.029,CST-1368DR,4682,4999,11376,01.267,551
2022-06-28T10:59:05,42.805,6.029,CST-1368DR,4681,4986,11349,01.277,551
2022-06-28T11:02:06,42.805,6.029,CST-1368DR,4681,4996,11372,01.269,551
2022-06-28T11:05:08,42.805,6.029,CST-1368DR,4681,4999,11380,01.266,551
2022-06-28T11:08:09,42.805,6.029,CST-1368DR,4682,4997,11373,01.268,551
2022-06-28T11:11:11,42.805,6.029,CST-1368DR,4681,4991,11362,01.272,551
2022-06-28T11:14:12,42.805,6.029,CST-1368DR,4681,4994,11367,01.270,551
2022-06-28T11:17:14,42.805,6.029,CST-1368DR,4681,4983,11342,01.279,551
2022-06-28T11:20:16,42.805,6.029,CST-1368DR,4681,4997,11375,01.268,551
2022-06-28T11:23:17,42.805,6.029,CST-1368DR,4681,4985,11348,01.277,551
2022-06-28T11:26:19,42.805,6.029,CST-1368DR,4681,4994,11367,01.270,551
2022-06-28T11:29:20,42.805,6.029,CST-1368DR,4681,4984,11344,01.278,551
2022-06-28T11:32:22,42.805,6.029,CST-1368DR,4681,4991,11360,01.273,551
2022-06-28T11:35:24,42.805,6.029,CST-1368DR,4681,4989,11357,01.274,551
2022-06-28T11:38:25,42.805,6.029,CST-1368DR,4681,4988,11355,01.275,551
2022-06-28T11:41:27,42.805,6.029,CST-1368DR,4681,4989,11357,01.274,551
2022-06-28T11:44:28,42.805,6.029,CST-1368DR,4681,4985,11347,01.277,551
2022-06-28T11:47:30,42.805,6.029,CST-1368DR,4681,4996,11373,01.268,551
2022-06-28T11:50:31,42.805,6.029,CST-1368DR,4681,4993,11366,01.271,551
2022-06-28T11:53:33,42.805,6.029,CST-1368DR,4681,4983,11342,01.279,551
2022-06-28T11:56:35,42.805,6.029,CST-1368DR,4681,4999,11378,01.266,551
2022-06-28T11:59:36,42.805,6.029,CST-1368DR,4681,4979,11334,01.282,551
2022-06-28T12:02:38,42.805,6.029,CST-1368DR,4681,4985,11346,01.278,551
2022-06-28T12:05:39,42.805,6.029,CST-1368DR,4681,4989,11355,01.275,551
2022-06-28T12:08:41,42.805,6.029,CST-1368DR,4681,4985,11348,01.277,551
2022-06-28T12:11:42,42.805,6.029,CST-1368DR,4681,4990,11358,01.273,551
2022-06-28T12:14:44,42.805,6.029,CST-1368DR,4681,4986,11349,01.277,551
2022-06-28T12:17:46,42.805,6.029,CST-1368DR,4681,4975,11324,01.285,551
2022-06-28T12:20:47,42.805,6.029,CST-1368DR,4681,4988,11354,01.275,551
2022-06-28T12:23:49,42.805,6.029,CST-1368DR,4681,4990,11358,01.273,551
2022-06-28T12:26:50,42.805,6.029,CST-1368DR,4681,4997,11374,01.268,551
2022-06-28T12:29:52,42.805,6.029,CST-1368DR,4681,4984,11345,01.278,551
2022-06-28T12:32:54,42.805,6.029,CST-1368DR,4681,5008,11400,01.259,551
2022-06-28T12:35:55,42.805,6.029,CST-1368DR,4681,4993,11365,01.271,551
2022-06-28T12:38:57,42.805,6.029,CST-1368DR,4681,4990,11358,01.273,551
2022-06-28T12:41:58,42.805,6.029,CST-1368DR,4681,4999,11379,01.266,551
2022-06-28T12:45:00,42.805,6.029,CST-1368DR,4681,4986,11349,01.277,551
2022-06-28T12:48:01,42.805,6.029,CST-1368DR,4681,4996,11373,01.268,551
2022-06-28T12:51:03,42.805,6.029,CST-1368DR,4681,4989,11357,01.274,551
2022-06-28T12:54:05,42.805,6.029,CST-1368DR,4681,4985,11346,01.278,551
2022-06-28T12:57:06,42.805,6.029,CST-1368DR,4681,4973,11319,01.287,551
2022-06-28T13:00:08,42.805,6.029,CST-1368DR,4681,4982,11341,01.279,551
2022-06-28T13:03:09,42.805,6.029,CST-1368DR,4681,4991,11362,01.272,551
2022-06-28T13:06:11,42.805,6.029,CST-1368DR,4681,4985,11347,01.277,551
2022-06-28T13:09:12,42.805,6.029,CST-1368DR,4681,4988,11355,01.275,551
2022-06-28T13:12:14,42.805,6.029,CST-1368DR,4681,4988,11354,01.275,551
2022-06-28T13:15:16,42.805,6.029,CST-1368DR,4681,4992,11364,01.271,551
2022-06-28T13:18:17,42.805,6.029,CST-1368DR,4681,4980,11335,01.282,550
2022-06-28T13:21:19,42.805,6.029,CST-1368DR,4681,4985,11346,01.278,551
2022-06-28T13:24:20,42.805,6.029,CST-1368DR,4681,4974,11323,01.286,551
2022-06-28T13:27:22,42.805,6.029,CST-1368DR,4681,4978,11332,01.283,551
2022-06-28T13:30:24,42.805,6.029,CST-1368DR,4681,4983,11342,01.279,551
2022-06-28T13:33:25,42.805,6.029,CST-1368DR,4681,4970,11312,01.290,551
2022-06-28T13:36:27,42.805,6.029,CST-1368DR,4681,4973,11321,01.287,551
2022-06-28T13:39:28,42.805,6.029,CST-1368DR,4681,4982,11339,01.280,551
2022-06-28T13:42:30,42.805,6.029,CST-1368DR,4681,4976,11327,01.284,551
2022-06-28T13:45:31,42.805,6.029,CST-1368DR,4681,4981,11339,01.280,551
2022-06-28T13:48:33,42.805,6.029,CST-1368DR,4681,4982,11339,01.280,551
2022-06-28T13:51:35,42.805,6.029,CST-1368DR,4681,4965,11301,01.294,551
2022-06-28T13:54:36,42.805,6.029,CST-1368DR,4681,4990,11358,01.273,551
2022-06-28T13:57:38,42.805,6.029,CST-1368DR,4681,4983,11343,01.279,550
2022-06-28T14:00:39,42.805,6.029,CST-1368DR,4681,4974,11323,01.286,551
2022-06-28T14:03:41,42.805,6.029,CST-1368DR,4681,4983,11343,01.279,551
2022-06-28T14:06:43,42.805,6.029,CST-1368DR,4681,4992,11362,01.272,551
2022-06-28T14:09:44,42.805,6.029,CST-1368DR,4681,4986,11350,01.276,551
2022-06-28T14:12:46,42.805,6.029,CST-1368DR,4681,4980,11335,01.282,551
2022-06-28T14:15:47,42.805,6.029,CST-1368DR,4681,4975,11324,01.285,551
2022-06-28T14:18:49,42.805,6.029,CST-1368DR,4681,4992,11363,01.272,551
2022-06-28T14:21:50,42.805,6.029,CST-1368DR,4681,4990,11359,01.273,551
2022-06-28T14:24:52,42.805,6.029,CST-1368DR,4681,4996,11373,01.268,551
2022-06-28T14:27:54,42.805,6.029,CST-1368DR,4681,4996,11372,01.269,551
2022-06-28T14:30:55,42.805,6.029,CST-1368DR,4681,4989,11357,01.274,551
2022-06-28T14:33:57,42.805,6.029,CST-1368DR,4681,4995,11370,01.269,551
2022-06-28T14:36:58,42.805,6.029,CST-1368DR,4681,4993,11365,01.271,551
2022-06-28T14:40:00,42.805,6.029,CST-1368DR,4681,4991,11361,01.272,551
2022-06-28T14:43:01,42.805,6.029,CST-1368DR,4681,4998,11377,01.267,551
2022-06-28T14:46:03,42.805,6.029,CST-1368DR,4681,4993,11365,01.271,551
2022-06-28T14:49:05,42.805,6.029,CST-1368DR,4681,4996,11372,01.269,551
2022-06-28T14:52:06,42.805,6.029,CST-1368DR,4681,4994,11367,01.270,551
2022-06-28T14:55:08,42.805,6.029,CST-1368DR,4681,5000,11382,01.265,551
2022-06-28T14:58:09,42.805,6.029,CST-1368DR,4681,5002,11386,01.264,551
2022-06-28T15:01:11,42.805,6.029,CST-1368DR,4681,4997,11374,01.268,551
2022-06-28T15:04:13,42.805,6.029,CST-1368DR,4681,5003,11388,01.263,551
2022-06-28T15:07:14,42.805,6.029,CST-1368DR,4681,4999,11380,01.266,551
2022-06-28T15:10:16,42.805,6.029,CST-1368DR,4681,4997,11375,01.268,551
2022-06-28T15:13:17,42.805,6.029,CST-1368DR,4681,5014,11414,01.254,551
2022-06-28T15:16:19,42.805,6.029,CST-1368DR,4681,4999,11378,01.266,551
2022-06-28T15:19:20,42.805,6.029,CST-1368DR,4681,4995,11369,01.270,551
2022-06-28T15:22:22,42.805,6.029,CST-1368DR,4681,5000,11382,01.265,551
2022-06-28T15:25:24,42.805,6.029,CST-1368DR,4681,5006,11394,01.261,551
2022-06-28T15:28:25,42.805,6.029,CST-1368DR,4681,5004,11391,01.262,551
2022-06-28T15:31:27,42.805,6.029,CST-1368DR,4681,5002,11387,01.263,551
2022-06-28T15:34:28,42.805,6.029,CST-1368DR,4681,5001,11383,01.265,551
2022-06-28T15:37:30,42.805,6.029,CST-1368DR,4681,5000,11382,01.265,551
2022-06-28T15:40:31,42.805,6.029,CST-1368DR,4681,4982,11340,01.280,551
2022-06-28T15:43:33,42.805,6.029,CST-1368DR,4681,5006,11396,01.260,551
2022-06-28T15:46:35,42.805,6.029,CST-1368DR,4681,4996,11372,01.269,551
2022-06-28T15:49:36,42.805,6.029,CST-1368DR,4681,5006,11395,01.260,551
2022-06-28T15:52:38,42.805,6.029,CST-1368DR,4681,4999,11378,01.266,551
2022-06-28T15:55:39,42.805,6.029,CST-1368DR,4681,5012,11409,01.256,551
2022-06-28T15:58:41,42.805,6.029,CST-1368DR,4681,5006,11395,01.260,551
2022-06-28T16:01:43,42.805,6.029,CST-1368DR,4681,5003,11387,01.263,551
2022-06-28T16:04:44,42.805,6.029,CST-1368DR,4681,5008,11400,01.259,551
2022-06-28T16:07:46,42.805,6.029,CST-1368DR,4681,5006,11396,01.260,551
2022-06-28T16:10:47,42.805,6.029,CST-1368DR,4681,5004,11391,01.262,551
2022-06-28T16:13:49,42.805,6.029,CST-1368DR,4681,5011,11405,01.257,551
2022-06-28T16:16:50,42.805,6.029,CST-1368DR,4681,5007,11398,01.259,551
2022-06-28T16:19:52,42.805,6.029,CST-1368DR,4682,5042,11475,01.233,551
2022-06-28T16:22:54,42.805,6.029,CST-1368DR,4681,5013,11411,01.255,551
2022-06-28T16:25:55,42.805,6.029,CST-1368DR,4681,5012,11408,01.256,551
2022-06-28T16:28:57,42.805,6.029,CST-1368DR,4681,5016,11418,01.252,551
2022-06-28T16:31:58,42.805,6.029,CST-1368DR,4681,5016,11417,01.253,551
2022-06-28T16:35:00,42.805,6.029,CST-1368DR,4681,5014,11413,01.254,551
2022-06-28T16:38:02,42.805,6.029,CST-1368DR,4681,5008,11400,01.259,551